Airfield :
LOGIN :

Register | Disclaimer

   EN    FR    IT 

 










Legend :    VFR   Marginal VFR   IFR   Intensive IFR   Very Intensive IFR
Visi :
Ceiling :
>= 8 km
>= 3000ft
5 to 8 km
1000 to 3000 ft
1500m to 5 km
500 to 1000 ft
800 to 1500m
200 to 500 ft
< 800m
< 200 ft
Symbols :   Thunderstorms  Fog  Heavy snow  Heavy precipitations  Wind > 20 kt
SIGMETs :     Misc.  Thunderstorms  Icing  Turbulence  Mountain Waves  Volcanic Ashes







- Airport Elevation : 1989 ft
- IATA code : KLV


LKKV - Karlovy Vary

CURRENT METAR :
  • 300100Z 18001KT CAVOK 14/12 Q1015

EXPIRED METARs :
  • 300000Z 13001KT CAVOK 15/12 Q1015
  • 292300Z VRB01KT CAVOK 15/13 Q1015

TAF TAF LKKV
Valid from the 30 at 00:00 until the 31 at 06:00 UTC


292300Z 3000/3106 25006KT CAVOK
TEMPO 3002/3005 VRB02KT 5000 MIFG NSC
TEMPO 3010/3023 8000 SHRA SCT030TCU
PROB30
TEMPO 3012/3021 33014G24KT 3000 TSRA SCT026CB
No reported NOTAMs for that airfield.



MET'MAP, your aeronautical weather chart ! - Copyright ORBIFLY December 2007 - Disclaimer

ORBIFLY MET'MAP TEAM :

Programming & Development : Alexandra Zaïnal
Concept & Development : Baudouin d'Aumeries
Co-Development & Prog : Marc-Olivier Méhu
Technical & hardware support : Manuel Goepfert

Contact : metmap@orbifly.com




SOURCES & CREDITS :

   NOAA